• In Romania
  • List of Countries
  • For 7 days
  • Water Temperature
  • Satellite Maps
  • Weather Map
  • Weather Widgets
  • user-avatar
    Login

    Hourly Weather Makarska

    Today, 14 December, Thursday

    Time Temperature Precipitation Wind Pressure Humidity
    00:00 +9°C° 0 mm 2 mps 760 mmHg 87%
    01:00 +9°C° 0 mm 2 mps 759 mmHg 85%
    02:00 +9°C° 0 mm 2 mps 759 mmHg 84%
    03:00 +9°C° 0 mm 2 mps 759 mmHg 83%
    04:00 +9°C° 0 mm 2 mps 759 mmHg 82%
    05:00 +9°C° 0 mm 3 mps 758 mmHg 84%
    06:00 +8°C° 0 mm 4 mps 758 mmHg 86%
    07:00 +8°C° 0 mm 5 mps 758 mmHg 88%
    08:00 +9°C° 0.1 mm 6 mps 758 mmHg 88%
    09:00 +9°C° 0.1 mm 6 mps 758 mmHg 89%
    10:00 +9°C° 0.1 mm 7 mps 758 mmHg 89%
    11:00 +9°C° 0.5 mm 7 mps 757 mmHg 89%
    12:00 +10°C° 0.5 mm 7 mps 757 mmHg 89%
    13:00 +10°C° 0.5 mm 7 mps 757 mmHg 89%
    14:00 +10°C° 0.6 mm 6 mps 756 mmHg 89%
    15:00 +10°C° 0.6 mm 6 mps 756 mmHg 89%
    16:00 +11°C° 0.6 mm 6 mps 756 mmHg 89%
    17:00 +11°C° 0.5 mm 6 mps 756 mmHg 89%
    18:00 +11°C° 0.5 mm 6 mps 756 mmHg 89%
    19:00 +11°C° 0.5 mm 6 mps 756 mmHg 88%
    20:00 +12°C° 0.3 mm 7 mps 755 mmHg 88%
    21:00 +12°C° 0.3 mm 7 mps 755 mmHg 88%
    22:00 +12°C° 0.3 mm 7 mps 755 mmHg 88%
    23:00 +12°C° 0.3 mm 7 mps 755 mmHg 88%

    Tomorrow, 15 December, Friday

    Time Temperature Precipitation Wind Pressure Humidity
    00:00 +12°C° 0.3 mm 7 mps 755 mmHg 88%
    01:00 +12°C° 0.3 mm 7 mps 755 mmHg 87%
    02:00 +12°C° 0.3 mm 7 mps 754 mmHg 88%
    03:00 +12°C° 0.3 mm 7 mps 754 mmHg 88%
    04:00 +12°C° 0.3 mm 7 mps 754 mmHg 88%
    05:00 +12°C° 0.3 mm 7 mps 753 mmHg 89%
    06:00 +12°C° 0.3 mm 8 mps 753 mmHg 90%
    07:00 +12°C° 0.3 mm 8 mps 753 mmHg 91%
    08:00 +13°C° 0.4 mm 8 mps 753 mmHg 90%
    09:00 +14°C° 0.4 mm 7 mps 753 mmHg 89%
    10:00 +14°C° 0.4 mm 7 mps 753 mmHg 88%
    11:00 +14°C° 1 mm 7 mps 752 mmHg 88%
    12:00 +14°C° 1 mm 7 mps 752 mmHg 88%
    13:00 +14°C° 1 mm 7 mps 751 mmHg 88%
    14:00 +13°C° 2.9 mm 8 mps 751 mmHg 90%
    15:00 +13°C° 2.9 mm 8 mps 750 mmHg 92%
    16:00 +13°C° 2.9 mm 9 mps 750 mmHg 94%
    17:00 +13°C° 4 mm 9 mps 749 mmHg 93%
    18:00 +13°C° 4 mm 10 mps 749 mmHg 93%
    19:00 +13°C° 4 mm 10 mps 749 mmHg 92%
    20:00 +12°C° 2.2 mm 9 mps 749 mmHg 92%
    21:00 +12°C° 2.2 mm 9 mps 749 mmHg 92%
    22:00 +12°C° 2.2 mm 8 mps 749 mmHg 92%
    23:00 +12°C° 4.2 mm 7 mps 749 mmHg 92%

    Day after tomorrow, 16 December, Saturday

    Time Temperature Precipitation Wind Pressure Humidity
    00:00 +11°C° 4.2 mm 7 mps 749 mmHg 93%
    01:00 +11°C° 4.2 mm 6 mps 749 mmHg 93%
    02:00 +12°C° 0.6 mm 5 mps 749 mmHg 93%
    03:00 +12°C° 0.6 mm 4 mps 749 mmHg 92%
    04:00 +11°C° 0.6 mm 3 mps 749 mmHg 91%
    05:00 +11°C° 0.6 mm 3 mps 750 mmHg 89%
    06:00 +11°C° 0.6 mm 4 mps 750 mmHg 86%
    07:00 +10°C° 0.6 mm 4 mps 751 mmHg 84%
    08:00 +11°C° 0.1 mm 3 mps 751 mmHg 80%
    09:00 +11°C° 0.1 mm 3 mps 751 mmHg 76%
    10:00 +12°C° 0.1 mm 2 mps 752 mmHg 72%
    11:00 +12°C° 0.1 mm 2 mps 752 mmHg 71%
    12:00 +12°C° 0.1 mm 2 mps 752 mmHg 70%
    13:00 +12°C° 0.1 mm 2 mps 752 mmHg 69%
    14:00 +12°C° 0 mm 2 mps 752 mmHg 71%
    15:00 +12°C° 0 mm 2 mps 752 mmHg 72%
    16:00 +10°C° 0 mm 2 mps 752 mmHg 74%
    17:00 +10°C° 0 mm 2 mps 753 mmHg 75%
    18:00 +10°C° 0 mm 3 mps 753 mmHg 76%
    19:00 +9°C° 0 mm 3 mps 753 mmHg 76%
    20:00 +8°C° 0.2 mm 4 mps 754 mmHg 75%
    21:00 +7°C° 0.2 mm 4 mps 754 mmHg 73%
    22:00 +7°C° 0.2 mm 4 mps 755 mmHg 72%
    23:00 +7°C° 0.1 mm 5 mps 755 mmHg 70%

    17 December, Sunday

    Time Temperature Precipitation Wind Pressure Humidity
    00:00 +5°C° 0.1 mm 6 mps 756 mmHg 69%
    01:00 +5°C° 0.1 mm 6 mps 756 mmHg 67%
    02:00 +5°C° 0 mm 7 mps 756 mmHg 66%
    03:00 +4°C° 0 mm 7 mps 757 mmHg 66%
    04:00 +4°C° 0 mm 7 mps 758 mmHg 65%
    05:00 +4°C° 0 mm 8 mps 758 mmHg 65%
    06:00 +4°C° 0 mm 8 mps 759 mmHg 65%
    07:00 +2°C° 0 mm 8 mps 760 mmHg 65%
    08:00 +4°C° 0 mm 8 mps 761 mmHg 62%
    09:00 +4°C° 0 mm 7 mps 761 mmHg 60%
    10:00 +4°C° 0 mm 7 mps 762 mmHg 58%
    11:00 +5°C° 0 mm 7 mps 762 mmHg 56%
    12:00 +5°C° 0 mm 6 mps 763 mmHg 54%
    13:00 +5°C° 0 mm 6 mps 763 mmHg 52%
    14:00 +5°C° 0 mm 6 mps 763 mmHg 54%
    15:00 +4°C° 0 mm 6 mps 764 mmHg 56%
    16:00 +5°C° 0 mm 5 mps 764 mmHg 58%
    17:00 +3°C° 0 mm 5 mps 765 mmHg 60%
    18:00 +3°C° 0 mm 5 mps 765 mmHg 63%
    19:00 +2°C° 0 mm 5 mps 766 mmHg 65%
    20:00 +2°C° 0 mm 5 mps 767 mmHg 65%
    21:00 +3°C° 0 mm 4 mps 767 mmHg 66%
    22:00 +3°C° 0 mm 4 mps 768 mmHg 66%
    23:00 +3°C° 0 mm 4 mps 768 mmHg 66%

    18 December, Monday

    Time Temperature Precipitation Wind Pressure Humidity
    00:00 +3°C° 0 mm 4 mps 768 mmHg 65%
    01:00 +3°C° 0 mm 4 mps 769 mmHg 65%
    02:00 +3°C° 0 mm 4 mps 769 mmHg 65%
    03:00 +3°C° 0 mm 3 mps 769 mmHg 64%
    04:00 +3°C° 0 mm 3 mps 769 mmHg 64%
    05:00 +2°C° 0 mm 3 mps 769 mmHg 64%
    06:00 +2°C° 0 mm 3 mps 769 mmHg 64%
    07:00 +2°C° 0 mm 3 mps 770 mmHg 64%
    08:00 +4°C° 0 mm 2 mps 770 mmHg 60%
    09:00 +5°C° 0 mm 2 mps 770 mmHg 56%
    10:00 +5°C° 0 mm 2 mps 770 mmHg 53%
    11:00 +6°C° 0 mm 2 mps 769 mmHg 49%
    12:00 +7°C° 0 mm 1 mps 768 mmHg 45%
    13:00 +8°C° 0 mm 1 mps 767 mmHg 42%
    14:00 +8°C° 0 mm 1 mps 767 mmHg 45%
    15:00 +7°C° 0 mm 1 mps 766 mmHg 49%
    16:00 +7°C° 0 mm 1 mps 766 mmHg 52%
    17:00 +7°C° 0 mm 1 mps 766 mmHg 54%
    18:00 +7°C° 0 mm 1 mps 766 mmHg 56%
    19:00 +7°C° 0 mm 1 mps 766 mmHg 58%
    20:00 +7°C° 0.2 mm 1 mps 766 mmHg 63%
    21:00 +6°C° 0.2 mm 1 mps 766 mmHg 67%
    22:00 +6°C° 0.2 mm 1 mps 766 mmHg 71%
    23:00 +5°C° 0.1 mm 2 mps 767 mmHg 73%

    19 December, Tuesday

    Time Temperature Precipitation Wind Pressure Humidity
    00:00 +5°C° 0.1 mm 2 mps 767 mmHg 75%
    01:00 +5°C° 0.1 mm 2 mps 767 mmHg 77%
    02:00 +5°C° 0.1 mm 2 mps 767 mmHg 79%
    03:00 +5°C° 0.1 mm 2 mps 767 mmHg 81%
    04:00 +5°C° 0.1 mm 2 mps 767 mmHg 82%
    05:00 +5°C° 0.1 mm 2 mps 767 mmHg 83%
    06:00 +5°C° 0.1 mm 2 mps 768 mmHg 83%
    07:00 +5°C° 0.1 mm 2 mps 768 mmHg 83%
    08:00 +5°C° 0 mm 2 mps 768 mmHg 79%
    09:00 +6°C° 0 mm 2 mps 768 mmHg 75%
    10:00 +7°C° 0 mm 2 mps 769 mmHg 71%
    11:00 +8°C° 0 mm 2 mps 769 mmHg 68%
    12:00 +8°C° 0 mm 2 mps 768 mmHg 66%
    13:00 +10°C° 0 mm 1 mps 768 mmHg 63%
    14:00 +8°C° 0 mm 2 mps 768 mmHg 66%
    15:00 +8°C° 0 mm 2 mps 768 mmHg 68%
    16:00 +8°C° 0 mm 2 mps 768 mmHg 71%
    17:00 +7°C° 0 mm 3 mps 768 mmHg 72%
    18:00 +7°C° 0 mm 3 mps 769 mmHg 74%
    19:00 +7°C° 0 mm 3 mps 769 mmHg 75%
    20:00 +5°C° 0 mm 4 mps 769 mmHg 74%
    21:00 +5°C° 0 mm 4 mps 770 mmHg 72%
    22:00 +5°C° 0 mm 4 mps 770 mmHg 71%
    23:00 +5°C° 0 mm 4 mps 770 mmHg 71%
    Show more